Location: Newark
(41.6500°N, 71.4833°W)
Time: 06:12:19
(UTC+00:00)

Courier 1B - Pass Details

Date: 20 January 2020
Orbit: 962 x 1209 km, 28.3° (Epoch: 20 February)

Event Time Altitude Azimuth Distance (km) Brightness Sun altitude
Rises 13:10:30 0° 257° (WSW) 4,099 10.4 9.0°
Reaches altitude 10° 13:13:57 10° 245° (WSW) 3,142 9.9 9.6°
Maximum altitude 13:19:57 24° 195° (SSW) 2,239 9.8 10.4°
Drops below altitude 10° 13:25:54 10° 144° (SE) 3,100 12.2 11.3°
Sets 13:29:16 0° 131° (SE) 4,033 12.9 11.8°
